judi bola
judi online
judi bola

Jackpot

Texas Poker Multi Jackpot System

Kini Telah hadir Jackpot SUPER ROYAL FLUSH

Kini Telah hadir Jackpot 2000 (khusus table VIP keatas).

Ikutilah global jackpot yang tersedia di system kami, dengan system jackpot terbaru dan pertama di indonesia, anda dapat membeli jackpot dengan harga 100 rupiah saja dan menangkan hadiahnya hingga puluhan juta rupiah.

Jackpot bukanlah suatu keharusan untuk dibeli, namun kami memberikan suatu fitur tambahan untuk member tercinta dari www.poker5star.org.

Terdapat tiga pilihan harga jackpot yang bisa anda beli yaitu :100,500,1000 dan 2000(khusus table VIP Keatas) rupiah.

Hadiah dari Multi jackpot system www.poker5star.org

  1. full house x 10 harga jackpot yang anda beli.
      (contoh:anda membeli 1000 maka:1000 X10 = 10.000)
  2. four of kind x 250 harga jackpot yang anda beli
      (contoh:anda membeli 1000 maka:1000 X250 = 250.000)
  3. Straight flush x 1200
      (contoh:anda membeli 1000 maka:1000 X1200 = 1.200.000)
  4. Royal flush x 10000 harga jackpot yang anda beli
      (contoh:anda membeli 1000 maka:1000 X10000 = 10.000.000)
  5. SUPER ROYAL FLUSH x 30000 harga jackpot yang anda beli
      (contoh:anda membeli 1000 maka:1000 X30000 = 30.000.000)

Kondisi kartu

  1. full house adalah kondisi kartu dimana kartu anda dan kartu tengah dengan total 7 kartu bisa mendapatkan nilai 5 kartu dengan kombinasi 1 tris(three of kind) dan 1 pair, contoh 3 kartu 10 dan 2 kartu 5
  2. Four of kind adalah kondisi kartu dimana kartu anda dan kartu tengah dengan total 7 kartu bisa mendapatkan nilai 5 kartu dengan kombinasi 4 kartu yang sama jumlah dan 1 kartu apapun juga contoh anda mendapatkan 4 buah kartu angka 3 dan 1 kartu apapun.
  3. Staright flush adalah kondisi kartu dimana kartu anda dan kartu tengah dengan total 7 kartu bisa mendapatkan nilai 5 kartu dengan kombinasi seri / staright dengan kembang yang sama contoh : urutan kartu dari angka 5, 6, 7, 8 , 9 10 dengan kembang yg sama misalnya as hati
  4. Royal flush adalah kondisi kartu dimana kartu anda dan kartu tengah dengan total 7 kartu bisa mendapatkan nilai 5 kartu dengan kombinasi seri / staright dengan kembang yang sama tetapi kartu tersebut haruslah dimulai dari 10. contoh 10, Queen, Jack, King dan aces dengan kembang yang sama
  5. Super Royal flush adalah kondisi kartu dimana Kedua kartu anda digabung dengan 3 kartu pertama meja haruslah royal flush. contoh kartu anda 10,Queen kembang sama dan 3 kartu pertama meja adalah Jack, King dan aces dengan kembang yang sama

Demikian adalah penjelasan dari Multi Jackpot www.poker5star.org terima kasih dan selamat bermain salam hoki dari kami

Texas Poker Jackpot Winner

TOP SUPER ROYAL FLUSH
No.TanggalNamaPriceWin
120/08 03:13MFF15Super Royal flush3,000,000
220/08 02:38USER9324Super Royal flush6,000,000
320/08 00:47L0H4Y11Super Royal flush15,000,000
419/08 21:26IBOTKERS1Super Royal flush6,000,000
519/08 21:07APUY62Super Royal flush30,000,000
TOP ROYAL FLUSH
No.TanggalNamaPriceWin
120/08 04:05CHEVROLRoyal flush1,000,000
220/08 04:03BENT0O16Royal flush2,000,000
320/08 03:40BSAYI06ONERoyal flush5,000,000
420/08 03:36TUTOFERNANDO94Royal flush2,000,000
520/08 03:24DOGERR85Royal flush2,000,000
TOP STRAIGHT FLUSH
No.TanggalNamaPriceWin
120/08 04:15NUR16Straight Flush240,000
220/08 04:13TAYPAK777Straight Flush600,000
320/08 04:13CUT388Straight Flush240,000
420/08 04:09SNI61064Straight Flush120,000
520/08 04:08C251BA7CStraight Flush1,200,000
LATEST JACKPOT
No.TanggalNamaPriceWin
120/08 04:17PAKOGAH91Full House10,000
220/08 04:17BANSAIFull House1,000
320/08 04:17ROCKYONOXFull House5,000
420/08 04:17DWBTCKJA8Full House2,000
520/08 04:17AXABENFull House5,000
620/08 04:17AJJA888Full House10,000
720/08 04:17GO4DPOLOK12Full House2,000
820/08 04:17AQINA77Full House10,000
920/08 04:17SILA08Full House20,000
1020/08 04:17KOES_303Full House5,000
1120/08 04:17NURCANDRAFull House1,000
1220/08 04:17HOBALA12Full House2,000
1320/08 04:17MAUNK22Full House2,000
1420/08 04:17SOLEH11AAFull House2,000
1520/08 04:17QIANZI20Full House1,000
1620/08 04:17PROVITE00Full House2,000
1720/08 04:17OJAT_RDRFull House10,000
1820/08 04:17G3MIL4N9Full House2,000
1920/08 04:17DVDRWFull House5,000
2020/08 04:17JERRI99Full House5,000
2120/08 04:17KOTSEI5W38Four Of A Kind250,000
2220/08 04:17MULES21Full House2,000
2320/08 04:17OKUS25Full House5,000
2420/08 04:17APRTWPFour Of A Kind50,000
2520/08 04:17EFC0B404Full House1,000
2620/08 04:17PRO_PRO_10Full House1,000
2720/08 04:17MEONG888Full House500
2820/08 04:17JQY741D3F3Full House5,000
2920/08 04:17TEMPOYAAKFour Of A Kind250,000
3020/08 04:17APEC9000Full House5,000
3120/08 04:17PO77TONFull House5,000
3220/08 04:17HUYHUY1234Full House2,000
3320/08 04:17SINOX2107Full House2,000
3420/08 04:16MUZAMMIL99Full House1,000
3520/08 04:16WINCONGKEAFull House5,000
3620/08 04:16LING808Full House1,000
3720/08 04:16ANDRE979Full House1,000
3820/08 04:16ZICOCO77Four Of A Kind250,000
3920/08 04:16AKQ5WFull House5,000
4020/08 04:16C3MPLUK22Full House2,000
4120/08 04:16KANTUTBAUFull House5,000
4220/08 04:16LUKAS808Full House2,000
4320/08 04:16AKS250577Full House1,000
4420/08 04:16BUZZ17Full House1,000
4520/08 04:16LQIS099ACPFull House1,000
4620/08 04:16R0S3SS146Four Of A Kind125,000
4720/08 04:16LINGGRADFull House5,000
4820/08 04:16CB74A267Full House2,000
4920/08 04:16CKPEH03Full House2,000
5020/08 04:16GHENDOELFull House5,000

Domino Multi Jackpot System

Ikutilah global jackpot yang tersedia di system kami, dengan system jackpot terbaru dan pertama di indonesia, anda dapat membeli jackpot dengan harga 100 rupiah saja dan menangkan hadiahnya hingga puluhan juta rupiah.

Jackpot bukanlah suatu keharusan untuk dibeli, namun kami memberikan suatu fitur tambahan untuk member tercinta dari www.poker5star.org.

Terdapat tiga pilihan harga jackpot yang bisa anda beli yaitu :100,500 dan 1000 rupiah.

Hadiah dari Multi jackpot system www.poker5star.org

  1. Murni Kecil x 50 harga jackpot yang anda beli.
      (contoh:anda membeli 1000 maka:1000 X 50 = 50.000)
  2. Murni Besar x 50 harga jackpot yang anda beli
      (contoh:anda membeli 1000 maka:1000 X 50 = 50.000)
  3. BALAK x 100 harga jackpot yang anda beli
      (contoh:anda membeli 1000 maka:1000 X 100 = 100.000)
  4. ENAM DEWA x 6666 harga jackpot yang anda beli
      (contoh:anda membeli 1000 maka:1000 X 6666 = 6.666.000)

Demikian adalah penjelasan dari Multi Jackpot www.poker5star.org terima kasih dan selamat bermain salam hoki dari kami

Domino Jackpot Winner

TOP ENAM DEWA
No.TanggalNamaPriceWin
120/08 02:37LICIN99murni enam6,666,000
220/08 02:17BP888911murni enam6,666,000
320/08 00:44NAGA_BNImurni enam666,600
420/08 00:28PHENCHOR76murni enam3,333,000
519/08 23:17EMPAT66murni enam3,333,000
TOP BALAK
No.TanggalNamaPriceWin
120/08 04:17RZ46balak100,000
220/08 04:16E65D596Dbalak10,000
320/08 04:15YUPONK09balak50,000
420/08 04:11AAAALDSU61balak50,000
520/08 04:09JAPRA_OKEbalak100,000
LATEST JACKPOT
No.TanggalNamaPriceWin
120/08 04:17JACK320murni kecil5,000
220/08 04:17RZ46balak100,000
320/08 04:16E65D596Dbalak10,000
420/08 04:16TANTRA67murni kecil50,000
520/08 04:15IB4N99murni besar50,000
620/08 04:15YUPONK09balak50,000
720/08 04:15CYBER577murni kecil25,000
820/08 04:15S0ULLmurni kecil25,000
920/08 04:15JI3NK94murni besar25,000
1020/08 04:14CEPOTWOWmurni kecil5,000
1120/08 04:14LAZIOmurni besar25,000
1220/08 04:13SIDIQ122murni besar5,000
1320/08 04:12LOVE245150murni besar50,000
1420/08 04:11RANDEE888murni besar5,000
1520/08 04:11AAAALDSU61balak50,000
1620/08 04:09JAPRA_OKEbalak100,000
1720/08 04:09JANE99murni besar5,000
1820/08 04:09TENGKEYUmurni besar25,000
1920/08 04:07OAN3OMG7WUmurni kecil25,000
2020/08 04:06TATO414balak100,000
2120/08 04:06FATAH17murni kecil25,000
2220/08 04:06IZIRD3N2NPmurni besar25,000
2320/08 04:06BANUN77murni kecil50,000
2420/08 04:05APONG246murni besar50,000
2520/08 04:04VIPB4Tmurni besar25,000
2620/08 04:04YUHUU0204murni besar50,000
2720/08 04:04LADHANKA08murni kecil50,000
2820/08 04:03M4RC0N05murni besar25,000
2920/08 04:03JAMBRONG99balak100,000
3020/08 04:03OMAHAWINbalak50,000
3120/08 04:02JIMAT03murni kecil25,000
3220/08 04:02KIKI00murni kecil50,000
3320/08 04:01TANTRA67murni kecil25,000
3420/08 04:01C59F8C0Fmurni kecil50,000
3520/08 04:00ALVINO2000lucky9910,000
3620/08 03:59LAKNATTTTmurni kecil50,000
3720/08 03:59RZ46murni besar50,000
3820/08 03:59BM512TUmurni kecil50,000
3920/08 03:58XX1TYOPKMObalak100,000
4020/08 03:57TIAYDmurni kecil25,000
4120/08 03:57CICALIMAmurni kecil5,000
4220/08 03:56IPKY9RD0U4murni besar5,000
4320/08 03:56MREZA8880murni kecil25,000
4420/08 03:56TIAYDmurni kecil25,000
4520/08 03:55OGAN271murni kecil5,000
4620/08 03:55HAWKE501balak100,000
4720/08 03:54JI3NK94balak50,000
4820/08 03:54ABRAHAM89murni besar50,000
4920/08 03:54OMAHAWINmurni besar25,000
5020/08 03:54NRC234murni kecil50,000

Ceme Multi Jackpot System

Jackpot dilihat dari gabungan kartu pemain dengan kartu bandar. Bandar harus membeli jackpot sebanyak jumlah player yang sedang duduk. Sebagai contoh bila terdapat 3 pemain duduk bermain, dan bandar memutuskan untuk membeli jackpot Rp 1.000, maka pada periode tersebut bandar akan membeli jackpot sebanyak 3xRp1.000 = Rp3.000.

Jackpot bukanlah suatu keharusan untuk dibeli, namun kami memberikan suatu fitur tambahan untuk member tercinta dari www.poker5star.org.

Terdapat tiga pilihan harga jackpot yang bisa anda beli yaitu :100,500 dan 1000 rupiah.

Hadiah dari Multi jackpot system www.poker5star.org

  1. Murni Kecil x 50 harga jackpot yang anda beli.
      (contoh:anda membeli 1000 maka:1000 X 50 = 50.000)
  2. Murni Besar x 50 harga jackpot yang anda beli
      (contoh:anda membeli 1000 maka:1000 X 50 = 50.000)
  3. BALAK x 200 harga jackpot yang anda beli
      (contoh:anda membeli 1000 maka:1000 X 200 = 200.000)
  4. ENAM DEWA x 6666 harga jackpot yang anda beli
      (contoh:anda membeli 1000 maka:1000 X 6666 = 6.666.000)

Demikian adalah penjelasan dari Multi Jackpot www.poker5star.org terima kasih dan selamat bermain salam hoki dari kami

Ceme Jackpot Winner

TOP ENAM DEWA
No.TanggalNamaPriceWin
120/08 04:07KOCLAK85murni enam666,600
220/08 04:07BOYONG33murni enam6,666,000
320/08 04:03DIRIANSAmurni enam6,666,000
420/08 04:03OTONGOSmurni enam3,333,000
520/08 03:54RIFDA804murni enam6,666,000
TOP BALAK
No.TanggalNamaPriceWin
120/08 04:17BETA881balak20,000
220/08 04:17ERIZARAbalak20,000
320/08 04:16ADEPbalak200,000
420/08 04:16YUDHIA0102balak100,000
520/08 04:15USTADDIANbalak100,000
LATEST JACKPOT
No.TanggalNamaPriceWin
120/08 04:17BOMBOMTRI2murni kecil5,000
220/08 04:17SIAP867murni kecil5,000
320/08 04:17MAXIBOISmurni besar50,000
420/08 04:17JEPAANKmurni besar25,000
520/08 04:17NUSIN04murni besar25,000
620/08 04:17BETA881balak20,000
720/08 04:17ROMBE91murni kecil5,000
820/08 04:17WAWAY94murni kecil5,000
920/08 04:17WA_ROYAL88murni kecil5,000
1020/08 04:17ANAKLOLO44murni besar50,000
1120/08 04:17ERIZARAbalak20,000
1220/08 04:16BANDUNG001murni besar50,000
1320/08 04:16PANDHUmurni besar50,000
1420/08 04:16NAUGHTY06murni kecil50,000
1520/08 04:16ADEPbalak200,000
1620/08 04:16YUDHIA0102balak100,000
1720/08 04:16HOKIYEASmurni besar50,000
1820/08 04:16HOKKIDOONGmurni besar50,000
1920/08 04:15KODOKIJO22murni kecil50,000
2020/08 04:15RATUNAGOGOmurni kecil50,000
2120/08 04:15USTADDIANbalak100,000
2220/08 04:15IRMA29balak200,000
2320/08 04:15SIMISKIN1Smurni kecil50,000
2420/08 04:15UNGGUL877murni kecil50,000
2520/08 04:15ABIZAR04murni kecil25,000
2620/08 04:14PERCANmurni kecil50,000
2720/08 04:14HAFNIQQ80murni kecil50,000
2820/08 04:14JIDAD89murni kecil50,000
2920/08 04:14MRZPTX007murni kecil25,000
3020/08 04:14ADIPUTRA95murni kecil5,000
3120/08 04:14HAMI1212murni besar50,000
3220/08 04:14ADAM_PUTRAmurni besar50,000
3320/08 04:14UZM212balak20,000
3420/08 04:13BOSKUH_JPmurni kecil50,000
3520/08 04:13RAMLANZRmurni kecil50,000
3620/08 04:13DHIKI36murni besar50,000
3720/08 04:13ALDIP46murni kecil50,000
3820/08 04:12ADEPmurni besar50,000
3920/08 04:12OKTAGANTANmurni besar5,000
4020/08 04:12NOV1992balak200,000
4120/08 04:12GABAN700balak200,000
4220/08 04:12OIKAGETmurni besar25,000
4320/08 04:12CECE789murni kecil50,000
4420/08 04:12ADEPmurni kecil50,000
4520/08 04:12OASIS2007murni kecil25,000
4620/08 04:11ZJWE9PSFL7murni kecil25,000
4720/08 04:11JOYA17balak200,000
4820/08 04:11HAMI1212murni besar50,000
4920/08 04:11DH3A69murni besar50,000
5020/08 04:11ADAM_PUTRAbalak200,000